• In Deutschland
  • Länderverzeichnis
  • Für 7 Tage
  • Wassertemperatur
  • Satellitenkarten
  • Wetterkarte
  • Widgets
  • user-avatar
    Anmelden

    Stündliche Wetter Bayreuth

    Heute, 21 Juni, Donnerstag

    Zeit Temperatur Niederschläge Wind Luftdruck Luftfeuchtigkeit
    00:00 +18°C° 0 mm 0 m/S 732 mmHg 90%
    01:00 +20°C° 0 mm 1 m/S 732 mmHg 89%
    02:00 +19°C° 0 mm 1 m/S 732 mmHg 90%
    03:00 +19°C° 0 mm 1 m/S 731 mmHg 91%
    04:00 +19°C° 0 mm 1 m/S 731 mmHg 92%
    05:00 +20°C° 0 mm 1 m/S 731 mmHg 87%
    06:00 +21°C° 0 mm 2 m/S 731 mmHg 83%
    07:00 +24°C° 0 mm 2 m/S 730 mmHg 76%
    08:00 +25°C° 0,2 mm 3 m/S 730 mmHg 70%
    09:00 +26°C° 0,2 mm 4 m/S 730 mmHg 65%
    10:00 +27°C° 0,2 mm 6 m/S 729 mmHg 59%
    11:00 +27°C° 0 mm 6 m/S 730 mmHg 56%
    12:00 +27°C° 0 mm 6 m/S 730 mmHg 53%
    13:00 +27°C° 0 mm 7 m/S 730 mmHg 49%
    14:00 +24°C° 0,2 mm 7 m/S 730 mmHg 54%
    15:00 +23°C° 0,2 mm 7 m/S 730 mmHg 59%
    16:00 +21°C° 0,2 mm 6 m/S 731 mmHg 64%
    17:00 +20°C° 0 mm 6 m/S 731 mmHg 62%
    18:00 +17°C° 0 mm 5 m/S 731 mmHg 60%
    19:00 +17°C° 0 mm 4 m/S 732 mmHg 58%
    20:00 +14°C° 0 mm 4 m/S 733 mmHg 61%
    21:00 +12°C° 0 mm 3 m/S 733 mmHg 64%
    22:00 +11°C° 0 mm 3 m/S 734 mmHg 67%
    23:00 +10°C° 0 mm 2 m/S 734 mmHg 73%

    Morgen, 22 Juni, Freitag

    Zeit Temperatur Niederschläge Wind Luftdruck Luftfeuchtigkeit
    00:00 +9°C° 0 mm 2 m/S 735 mmHg 79%
    01:00 +8°C° 0 mm 2 m/S 735 mmHg 84%
    02:00 +7°C° 0 mm 2 m/S 735 mmHg 87%
    03:00 +7°C° 0 mm 2 m/S 735 mmHg 90%
    04:00 +6°C° 0 mm 2 m/S 735 mmHg 93%
    05:00 +7°C° 0 mm 3 m/S 735 mmHg 85%
    06:00 +8°C° 0 mm 4 m/S 735 mmHg 78%
    07:00 +9°C° 0 mm 5 m/S 736 mmHg 71%
    08:00 +9°C° 0,1 mm 5 m/S 736 mmHg 71%
    09:00 +10°C° 0,1 mm 5 m/S 736 mmHg 71%
    10:00 +10°C° 0,1 mm 5 m/S 736 mmHg 71%
    11:00 +10°C° 0,3 mm 5 m/S 735 mmHg 72%
    12:00 +12°C° 0,3 mm 5 m/S 735 mmHg 74%
    13:00 +12°C° 0,3 mm 5 m/S 735 mmHg 76%
    14:00 +13°C° 0,2 mm 5 m/S 735 mmHg 70%
    15:00 +14°C° 0,2 mm 5 m/S 735 mmHg 65%
    16:00 +15°C° 0,2 mm 5 m/S 735 mmHg 59%
    17:00 +15°C° 0,1 mm 5 m/S 735 mmHg 64%
    18:00 +14°C° 0,1 mm 4 m/S 736 mmHg 70%
    19:00 +13°C° 0,1 mm 4 m/S 736 mmHg 75%
    20:00 +12°C° 0 mm 3 m/S 736 mmHg 80%
    21:00 +11°C° 0 mm 3 m/S 736 mmHg 86%
    22:00 +9°C° 0 mm 2 m/S 737 mmHg 91%
    23:00 +9°C° 0 mm 2 m/S 737 mmHg 92%

    übermorgen, 23 Juni, Samstag

    Zeit Temperatur Niederschläge Wind Luftdruck Luftfeuchtigkeit
    00:00 +9°C° 0 mm 2 m/S 737 mmHg 94%
    01:00 +8°C° 0 mm 2 m/S 737 mmHg 95%
    02:00 +8°C° 0 mm 2 m/S 737 mmHg 95%
    03:00 +8°C° 0 mm 2 m/S 737 mmHg 95%
    04:00 +8°C° 0 mm 2 m/S 737 mmHg 95%
    05:00 +8°C° 0 mm 3 m/S 737 mmHg 92%
    06:00 +9°C° 0 mm 3 m/S 737 mmHg 88%
    07:00 +10°C° 0 mm 3 m/S 737 mmHg 84%
    08:00 +10°C° 0,1 mm 3 m/S 737 mmHg 79%
    09:00 +11°C° 0,1 mm 3 m/S 737 mmHg 75%
    10:00 +12°C° 0,1 mm 4 m/S 737 mmHg 71%
    11:00 +13°C° 0,1 mm 4 m/S 737 mmHg 70%
    12:00 +13°C° 0,1 mm 4 m/S 737 mmHg 69%
    13:00 +13°C° 0,1 mm 4 m/S 737 mmHg 68%
    14:00 +14°C° 0 mm 4 m/S 736 mmHg 67%
    15:00 +14°C° 0 mm 4 m/S 736 mmHg 66%
    16:00 +14°C° 0 mm 4 m/S 736 mmHg 65%
    17:00 +13°C° 0 mm 4 m/S 736 mmHg 68%
    18:00 +13°C° 0 mm 3 m/S 736 mmHg 71%
    19:00 +13°C° 0 mm 3 m/S 736 mmHg 73%
    20:00 +13°C° 0 mm 2 m/S 736 mmHg 79%
    21:00 +12°C° 0 mm 2 m/S 736 mmHg 84%
    22:00 +11°C° 0 mm 1 m/S 736 mmHg 89%
    23:00 +11°C° 0,1 mm 1 m/S 736 mmHg 91%

    24 Juni, Sonntag

    Zeit Temperatur Niederschläge Wind Luftdruck Luftfeuchtigkeit
    00:00 +11°C° 0,1 mm 1 m/S 736 mmHg 93%
    01:00 +10°C° 0,1 mm 1 m/S 735 mmHg 95%
    02:00 +10°C° 0,1 mm 1 m/S 735 mmHg 95%
    03:00 +10°C° 0,1 mm 1 m/S 735 mmHg 96%
    04:00 +10°C° 0,1 mm 1 m/S 735 mmHg 97%
    05:00 +11°C° 0 mm 1 m/S 735 mmHg 95%
    06:00 +12°C° 0 mm 1 m/S 735 mmHg 93%
    07:00 +12°C° 0 mm 1 m/S 735 mmHg 91%
    08:00 +13°C° 0,1 mm 2 m/S 735 mmHg 85%
    09:00 +14°C° 0,1 mm 2 m/S 736 mmHg 79%
    10:00 +15°C° 0,1 mm 2 m/S 736 mmHg 73%
    11:00 +16°C° 0,2 mm 2 m/S 735 mmHg 71%
    12:00 +17°C° 0,2 mm 2 m/S 735 mmHg 69%
    13:00 +17°C° 0,2 mm 2 m/S 735 mmHg 67%
    14:00 +17°C° 0,2 mm 2 m/S 735 mmHg 67%
    15:00 +17°C° 0,2 mm 2 m/S 735 mmHg 68%
    16:00 +17°C° 0,2 mm 2 m/S 734 mmHg 68%
    17:00 +17°C° 0,1 mm 2 m/S 734 mmHg 73%
    18:00 +16°C° 0,1 mm 2 m/S 734 mmHg 78%
    19:00 +15°C° 0,1 mm 2 m/S 734 mmHg 82%
    20:00 +14°C° 0 mm 1 m/S 734 mmHg 86%
    21:00 +13°C° 0 mm 1 m/S 735 mmHg 89%
    22:00 +12°C° 0 mm 1 m/S 735 mmHg 93%
    23:00 +12°C° 0 mm 1 m/S 735 mmHg 94%

    25 Juni, Montag

    Zeit Temperatur Niederschläge Wind Luftdruck Luftfeuchtigkeit
    00:00 +11°C° 0 mm 1 m/S 735 mmHg 94%
    01:00 +11°C° 0 mm 1 m/S 735 mmHg 95%
    02:00 +11°C° 0 mm 1 m/S 735 mmHg 95%
    03:00 +10°C° 0 mm 1 m/S 735 mmHg 96%
    04:00 +10°C° 0 mm 1 m/S 735 mmHg 96%
    05:00 +11°C° 0 mm 1 m/S 735 mmHg 94%
    06:00 +12°C° 0 mm 1 m/S 735 mmHg 92%
    07:00 +13°C° 0 mm 2 m/S 736 mmHg 90%
    08:00 +14°C° 0 mm 2 m/S 736 mmHg 83%
    09:00 +16°C° 0 mm 2 m/S 736 mmHg 76%
    10:00 +17°C° 0 mm 3 m/S 736 mmHg 70%
    11:00 +18°C° 0,1 mm 3 m/S 736 mmHg 64%
    12:00 +20°C° 0,1 mm 3 m/S 736 mmHg 59%
    13:00 +21°C° 0,1 mm 3 m/S 736 mmHg 53%
    14:00 +21°C° 0,2 mm 3 m/S 736 mmHg 55%
    15:00 +21°C° 0,2 mm 3 m/S 736 mmHg 57%
    16:00 +21°C° 0,2 mm 4 m/S 736 mmHg 58%
    17:00 +20°C° 0,1 mm 3 m/S 736 mmHg 63%
    18:00 +19°C° 0,1 mm 3 m/S 736 mmHg 68%
    19:00 +19°C° 0,1 mm 2 m/S 736 mmHg 73%
    20:00 +17°C° 0 mm 2 m/S 736 mmHg 78%
    21:00 +15°C° 0 mm 2 m/S 736 mmHg 83%
    22:00 +13°C° 0 mm 1 m/S 736 mmHg 88%
    23:00 +13°C° 0 mm 1 m/S 736 mmHg 88%

    26 Juni, Dienstag

    Zeit Temperatur Niederschläge Wind Luftdruck Luftfeuchtigkeit
    00:00 +12°C° 0 mm 1 m/S 736 mmHg 88%
    01:00 +12°C° 0 mm 1 m/S 736 mmHg 89%
    02:00 +12°C° 0 mm 1 m/S 736 mmHg 88%
    03:00 +11°C° 0 mm 1 m/S 736 mmHg 88%
    04:00 +11°C° 0 mm 1 m/S 736 mmHg 88%
    05:00 +13°C° 0 mm 1 m/S 737 mmHg 82%
    06:00 +15°C° 0 mm 1 m/S 737 mmHg 76%
    07:00 +18°C° 0 mm 1 m/S 737 mmHg 70%
    08:00 +18°C° 0 mm 2 m/S 737 mmHg 62%
    09:00 +20°C° 0 mm 2 m/S 737 mmHg 54%
    10:00 +23°C° 0 mm 2 m/S 737 mmHg 46%
    11:00 +23°C° 0 mm 2 m/S 737 mmHg 46%
    12:00 +24°C° 0 mm 2 m/S 737 mmHg 46%
    13:00 +24°C° 0 mm 2 m/S 737 mmHg 45%
    14:00 +24°C° 0 mm 2 m/S 736 mmHg 47%
    15:00 +24°C° 0 mm 2 m/S 736 mmHg 50%
    16:00 +24°C° 0 mm 2 m/S 736 mmHg 52%
    17:00 +23°C° 0,1 mm 2 m/S 736 mmHg 59%
    18:00 +22°C° 0,1 mm 1 m/S 736 mmHg 66%
    19:00 +21°C° 0,1 mm 1 m/S 736 mmHg 73%
    20:00 +19°C° 0 mm 1 m/S 736 mmHg 78%
    21:00 +18°C° 0 mm 1 m/S 736 mmHg 84%
    22:00 +15°C° 0 mm 1 m/S 736 mmHg 89%
    23:00 +15°C° 0 mm 1 m/S 736 mmHg 90%
    Mehr zeigen